Wind_Speed
12 12 11 11 11 10 10 11 11 11 11 11 11 11 10 11 11 11 10 10 10 10 11 12 11 11 10 11 11 11 10 10 10 10 10 9 9 9 8 7 7 7 6
11 11 10 10 11 10 10 11 11 11 11 11 11 11 11 12 12 11 11 11 11 12 11 11 11 11 10 10 11 11 10 11 11 10 10 10 9 8 8 7 7 7 6
11 11 10 11 11 10 10 11 11 12 12 11 11 11 12 12 12 12 11 11 12 12 12 11 11 11 11 10 10 10 10 10 10 10 9 9 8 8 7 7 7 7 7
12 11 11 11 11 10 10 11 11 12 12 12 11 12 12 12 12 12 12 12 12 12 12 10 11 11 11 11 10 10 10 10 9 9 8 8 7 7 7 7 7 8 8
12 11 11 11 11 11 11 12 12 12 13 12 12 12 13 13 13 12 13 13 13 12 11 10 10 11 11 11 10 10 10 9 9 9 9 8 7 7 7 7 8 8 8
12 11 11 11 11 12 12 12 12 13 13 13 13 13 13 13 13 13 13 13 13 12 11 11 11 11 11 10 10 9 9 9 9 8 8 7 7 7 7 7 8 8 8
13 12 12 12 12 12 13 13 13 13 13 13 13 13 13 14 13 13 14 13 13 12 11 11 11 11 11 10 10 9 9 8 8 8 7 6 6 6 6 7 7 7 7
13 12 12 12 12 13 13 13 13 12 12 12 13 12 12 13 13 13 13 13 12 12 11 10 10 10 9 9 9 8 8 7 7 6 6 5 6 6 6 6 6 6 6
13 13 12 13 13 13 13 13 13 12 12 12 12 12 12 12 12 12 12 12 11 11 10 10 9 9 9 9 8 7 7 6 6 5 5 4 5 5 5 5 5 5 5
13 13 12 13 13 13 12 12 12 12 11 11 11 11 11 11 11 11 11 11 10 10 10 9 8 8 8 8 7 7 6 6 5 5 4 3 4 4 4 5 4 4 4
13 12 12 12 12 11 11 11 12 12 11 11 11 11 11 11 11 10 10 10 9 9 9 9 8 8 7 7 6 6 6 5 4 4 4 3 3 3 3 4 4 4 4
13 12 12 12 11 11 12 11 11 11 11 10 10 10 9 10 10 9 9 8 8 8 8 8 7 7 6 5 5 5 4 4 3 3 3 2 2 2 2 3 4 4 4
13 13 12 12 11 12 12 12 11 11 11 10 10 10 9 8 8 7 7 7 7 6 6 6 6 5 5 4 4 4 3 3 3 2 2 2 1 0 2 2 2 3 3
13 13 12 12 12 11 11 11 11 10 10 9 10 9 8 7 7 6 6 6 5 4 4 4 3 3 3 3 3 2 2 2 1 2 1 1 0 0 1 2 1 1 2
14 14 13 12 12 11 10 10 10 9 9 9 9 8 8 7 6 5 4 4 4 3 3 2 2 2 2 2 1 1 1 1 0 1 1 0 0 1 1 1 1 1 2
14 13 13 13 12 11 10 10 9 9 8 8 8 7 7 7 5 4 3 3 3 3 3 2 1 2 1 1 1 1 1 1 1 1 1 1 1 1 2 2 2 3 3
15 14 13 13 12 11 10 10 9 8 7 7 6 6 6 6 5 4 3 3 3 3 2 2 1 1 1 1 1 1 2 2 2 2 2 2 3 3 3 3 3 4 5
14 13 13 12 11 10 9 8 8 8 7 7 6 5 5 5 5 4 3 3 2 3 3 3 2 1 0 0 0 1 3 3 3 3 3 4 3 4 4 5 5 5 6
13 12 12 11 11 10 9 8 7 7 7 7 6 6 5 5 4 4 3 3 2 2 2 3 2 3 2 1 1 2 3 3 3 4 4 4 4 5 5 6 6 7 7
12 12 11 11 11 10 9 9 8 7 7 6 6 6 5 5 4 4 2 2 2 1 2 2 3 3 3 2 2 3 4 4 4 5 5 5 5 6 7 7 8 8 8
12 12 11 11 11 9 9 8 7 7 7 6 5 5 4 4 5 4 4 3 2 2 2 2 3 3 3 4 4 4 5 5 6 6 7 7 7 8 8 8 9 9 9
10 10 10 9 10 9 8 8 8 7 7 6 5 5 4 4 4 4 4 3 2 3 3 3 3 4 5 5 5 5 5 6 7 7 7 8 8 8 8 9 9 9 10
9 9 9 9 8 9 8 8 9 8 7 6 6 6 6 5 5 5 4 3 3 4 4 4 4 5 5 6 6 6 7 7 7 7 7 8 8 9 10 10 10 10 10
8 8 9 9 8 8 8 8 8 8 8 7 7 6 6 6 5 4 5 4 4 4 4 5 5 5 6 6 7 7 8 8 8 8 9 9 9 9 10 11 11 11 12
8 8 9 9 9 8 9 8 8 8 8 8 7 7 7 6 6 6 6 5 5 5 5 5 6 6 7 7 8 8 9 10 10 10 10 10 11 11 11 11 12 13 13
7 8 8 8 8 8 8 8 8 9 9 8 8 8 8 8 7 7 6 6 5 5 6 7 7 7 8 9 9 10 11 11 11 11 11 11 11 12 12 13 13 14 14
Wind_Direction
76 78 80 83 88 95 100 100 101 104 103 102 104 108 112 117 116 118 122 121 122 117 117 120 115 117 119 118 115 117 114 116 118 119 122 124 124 124 126 133 142 143 147
81 82 84 88 93 97 99 101 102 103 103 101 102 106 110 115 118 118 116 115 118 116 114 116 116 116 120 115 115 115 112 114 114 114 117 120 123 125 129 133 136 135 138
83 84 86 90 93 96 98 102 104 105 102 100 102 105 110 116 117 116 115 116 116 115 116 115 116 121 119 116 116 115 116 113 111 113 117 121 126 126 127 130 130 133 137
83 83 81 86 89 94 99 100 101 104 102 100 102 105 111 117 116 116 118 119 119 119 118 116 115 120 116 115 113 114 117 116 113 116 119 121 123 124 127 129 127 127 132
81 82 83 87 91 98 99 100 103 104 103 102 102 103 108 114 117 117 118 119 118 118 119 118 116 113 114 115 115 115 114 114 114 116 119 120 122 127 129 130 130 128 131
79 83 86 89 93 97 99 102 104 104 103 103 102 102 105 111 116 117 119 118 117 116 119 119 115 113 116 115 114 112 112 114 111 111 117 121 123 125 126 129 131 134 133
78 80 82 87 92 96 100 103 105 104 103 103 103 103 105 107 114 117 119 118 117 118 117 115 112 112 112 113 110 110 112 114 115 113 117 121 124 125 122 125 131 136 137
76 77 80 86 92 98 102 103 103 104 103 103 103 104 107 108 109 112 116 116 116 115 114 112 113 112 112 110 106 110 112 116 117 121 118 122 129 132 128 119 118 131 138
74 76 81 86 92 96 99 102 103 102 103 103 104 106 110 111 111 112 113 115 115 114 115 115 116 114 112 109 108 109 111 116 118 124 124 122 131 134 136 129 126 135 147
73 76 84 88 92 93 95 97 100 101 103 105 106 109 112 113 113 112 113 113 114 111 114 116 114 110 108 108 108 107 108 115 116 120 124 120 130 137 140 142 140 142 148
73 78 84 86 88 91 94 94 95 97 99 102 104 107 109 113 116 113 113 114 113 111 112 111 109 107 106 109 111 109 107 115 116 116 115 117 120 133 132 142 156 161 156
71 75 80 85 84 88 90 90 93 95 96 98 100 102 104 106 108 109 108 112 116 115 114 114 113 113 110 109 111 111 107 108 111 117 110 128 134 145 163 153 162 173 170
69 72 77 84 83 86 88 88 91 92 94 98 102 101 102 107 108 109 109 110 117 122 122 120 118 118 117 115 118 116 109 103 108 120 118 111 135 180 186 171 164 181 188
67 71 74 77 80 82 86 86 86 89 89 94 98 101 100 105 108 108 110 111 121 128 133 135 132 131 129 128 124 122 105 93 110 133 117 104 103 190 201 201 194 211 214
64 68 71 74 78 81 83 84 84 81 84 93 91 92 89 98 102 106 108 111 112 113 128 133 143 166 171 157 134 123 120 94 114 155 123 223 96 65 216 232 236 260 260
61 65 69 72 75 79 79 79 80 82 89 94 90 85 82 88 92 100 106 103 105 96 102 123 142 173 170 181 211 257 268 289 291 255 259 268 270 278 284 270 260 274 276
58 63 67 68 71 76 77 76 78 80 85 85 82 80 74 76 79 96 101 94 96 92 80 75 97 187 200 180 231 266 275 284 279 275 275 271 268 272 272 273 273 274 275
55 60 61 63 65 69 70 72 71 73 79 80 76 66 66 69 72 85 89 79 75 75 68 61 47 24 265 193 259 287 292 290 288 283 283 279 280 283 286 281 279 279 275
52 56 57 58 58 61 61 64 65 67 66 62 59 57 55 50 49 56 66 66 68 65 45 36 21 9 11 357 337 322 311 299 294 283 281 284 286 285 287 287 282 281 275
50 54 56 55 55 57 56 57 59 60 58 46 46 51 45 39 39 43 43 47 43 36 33 20 3 357 1 346 322 315 314 312 302 298 292 288 288 289 291 288 286 284 279
48 49 50 52 50 50 51 52 51 50 50 50 49 45 38 26 24 25 20 22 16 18 5 356 354 339 333 335 327 315 312 309 299 293 291 288 285 285 287 286 286 285 281
45 42 41 44 43 43 43 45 47 41 39 40 37 30 17 11 9 7 359 0 338 329 319 321 323 330 331 328 325 325 317 304 297 296 293 289 284 284 288 289 287 285 281
41 38 39 40 41 42 41 40 38 34 30 25 20 15 5 1 3 353 343 338 319 318 318 321 315 319 329 329 323 317 314 308 301 297 296 295 289 286 285 289 289 290 286
37 36 36 34 35 35 36 35 34 30 24 17 9 6 4 360 351 344 342 332 315 309 312 316 315 316 319 318 315 309 306 304 299 296 293 292 289 287 287 286 285 286 286
30 32 34 29 27 26 26 25 25 21 17 11 5 358 353 349 348 341 338 330 318 309 309 315 315 314 316 312 308 307 304 302 297 293 291 290 289 287 286 284 281 282 284
14 17 20 22 19 16 15 14 12 9 8 5 1 356 351 350 347 345 344 336 321 310 310 314 316 312 309 307 306 303 301 300 298 293 291 289 289 288 286 285 285 283 284
Height
5872 5871 5870 5870 5870 5870 5870 5870 5870 5870 5871 5871 5871 5870 5871 5871 5872 5873 5874 5874 5875 5876 5877 5878 5878 5879 5879 5879 5880 5881 5881 5882 5882 5883 5883 5884 5884 5885 5885 5886 5886 5887 5887
5874 5873 5873 5873 5872 5872 5872 5872 5872 5872 5872 5872 5872 5872 5872 5872 5873 5874 5875 5876 5877 5878 5878 5879 5880 5880 5880 5881 5882 5882 5883 5884 5884 5885 5885 5885 5886 5886 5887 5887 5887 5888 5888
5876 5875 5875 5874 5874 5874 5874 5874 5874 5874 5874 5874 5874 5874 5874 5874 5875 5876 5877 5877 5878 5879 5880 5881 5881 5881 5882 5883 5883 5884 5885 5885 5886 5886 5886 5886 5887 5887 5888 5888 5888 5889 5889
5878 5877 5876 5876 5876 5876 5876 5876 5875 5875 5876 5875 5875 5875 5875 5876 5876 5877 5878 5879 5879 5880 5881 5882 5882 5883 5883 5884 5885 5886 5886 5887 5887 5888 5888 5888 5888 5888 5889 5889 5889 5889 5890
5880 5879 5878 5878 5878 5877 5877 5877 5878 5877 5878 5878 5877 5877 5877 5878 5879 5879 5880 5880 5881 5882 5883 5883 5884 5884 5885 5886 5887 5887 5888 5888 5889 5889 5889 5889 5889 5889 5890 5890 5890 5890 5891
5882 5881 5881 5880 5880 5879 5879 5879 5879 5880 5880 5880 5880 5880 5880 5880 5881 5881 5881 5882 5883 5884 5884 5885 5885 5886 5887 5887 5888 5889 5889 5890 5890 5890 5890 5891 5891 5891 5891 5891 5891 5891 5892
5884 5883 5882 5882 5882 5881 5881 5881 5881 5881 5882 5882 5882 5882 5882 5882 5883 5883 5883 5884 5885 5885 5886 5887 5887 5888 5888 5889 5890 5890 5891 5891 5891 5892 5892 5892 5892 5892 5892 5892 5892 5893 5893
5886 5885 5885 5884 5884 5884 5883 5883 5883 5883 5884 5884 5884 5884 5884 5885 5885 5886 5886 5886 5887 5887 5888 5889 5889 5890 5890 5891 5891 5892 5892 5893 5893 5893 5893 5893 5893 5893 5893 5893 5893 5893 5894
5889 5888 5887 5886 5886 5886 5886 5885 5885 5886 5886 5886 5886 5886 5887 5887 5887 5888 5888 5889 5889 5890 5890 5890 5891 5891 5892 5892 5893 5893 5893 5894 5894 5894 5894 5894 5894 5894 5894 5894 5894 5894 5895
5891 5890 5889 5889 5888 5888 5888 5888 5887 5888 5888 5888 5888 5888 5888 5889 5889 5890 5890 5891 5891 5891 5892 5892 5893 5893 5893 5893 5894 5894 5894 5894 5894 5894 5894 5895 5894 5894 5894 5894 5895 5895 5895
5894 5893 5892 5891 5891 5890 5890 5890 5890 5890 5890 5890 5890 5890 5890 5891 5891 5892 5892 5892 5893 5893 5893 5894 5894 5894 5894 5894 5895 5895 5895 5895 5895 5895 5895 5895 5895 5895 5895 5895 5895 5895 5895
5897 5895 5894 5893 5893 5892 5892 5892 5892 5892 5892 5892 5892 5892 5892 5893 5893 5894 5894 5894 5895 5895 5895 5895 5895 5895 5895 5895 5895 5895 5896 5896 5896 5896 5896 5896 5895 5895 5895 5895 5895 5895 5895
5899 5898 5896 5896 5895 5895 5894 5894 5894 5894 5894 5894 5894 5894 5894 5894 5895 5895 5895 5895 5896 5896 5896 5896 5896 5896 5896 5896 5896 5896 5896 5896 5896 5896 5896 5896 5896 5895 5895 5895 5895 5894 5895
5901 5900 5899 5898 5897 5897 5896 5896 5896 5896 5896 5896 5896 5896 5896 5896 5896 5896 5896 5896 5896 5896 5896 5896 5897 5897 5897 5897 5897 5896 5896 5896 5896 5896 5896 5896 5895 5895 5895 5895 5894 5894 5894
5903 5902 5901 5900 5900 5899 5898 5898 5898 5898 5897 5897 5897 5897 5897 5897 5897 5897 5897 5897 5897 5897 5897 5897 5897 5897 5897 5897 5897 5896 5896 5896 5896 5896 5896 5895 5895 5895 5895 5894 5894 5894 5894
5906 5905 5904 5903 5902 5901 5901 5900 5900 5899 5899 5898 5898 5898 5898 5897 5898 5898 5898 5897 5897 5897 5897 5897 5897 5897 5897 5897 5896 5896 5896 5896 5895 5895 5895 5895 5895 5895 5894 5894 5894 5893 5893
5909 5907 5906 5905 5904 5903 5903 5902 5901 5901 5900 5899 5899 5899 5899 5898 5898 5898 5898 5898 5898 5898 5897 5897 5897 5897 5896 5896 5896 5896 5896 5895 5895 5895 5895 5894 5894 5894 5893 5893 5893 5893 5892
5911 5910 5909 5907 5906 5905 5904 5904 5903 5902 5902 5901 5900 5900 5900 5899 5899 5898 5898 5898 5898 5898 5898 5897 5897 5896 5896 5896 5895 5895 5895 5895 5894 5894 5894 5893 5893 5893 5892 5892 5892 5891 5891
5914 5912 5911 5909 5908 5907 5906 5905 5905 5904 5903 5903 5902 5901 5901 5900 5899 5899 5899 5898 5898 5898 5898 5897 5897 5896 5895 5895 5895 5894 5894 5894 5893 5893 5893 5893 5892 5892 5891 5890 5890 5890 5890
5916 5914 5913 5911 5910 5909 5908 5907 5906 5905 5905 5904 5903 5902 5902 5901 5900 5899 5899 5898 5898 5898 5898 5897 5897 5896 5896 5895 5894 5894 5894 5893 5893 5892 5892 5891 5891 5890 5890 5889 5889 5888 5888
5918 5916 5915 5913 5912 5911 5910 5909 5908 5907 5906 5905 5904 5903 5902 5902 5901 5900 5899 5899 5898 5898 5897 5897 5896 5896 5895 5895 5894 5894 5893 5892 5892 5891 5891 5890 5890 5889 5888 5888 5887 5886 5886
5920 5918 5917 5915 5914 5912 5911 5910 5909 5908 5907 5906 5905 5904 5903 5902 5901 5900 5899 5898 5898 5898 5897 5897 5896 5895 5895 5894 5893 5893 5892 5892 5891 5890 5889 5888 5888 5887 5887 5886 5885 5884 5883
5922 5920 5919 5917 5916 5914 5913 5912 5910 5909 5908 5907 5906 5904 5903 5902 5901 5900 5899 5898 5898 5897 5897 5896 5895 5895 5894 5893 5892 5892 5891 5890 5889 5888 5887 5887 5886 5885 5884 5884 5883 5882 5881
5923 5922 5920 5919 5917 5916 5914 5913 5911 5910 5909 5908 5906 5905 5903 5902 5901 5899 5899 5898 5897 5896 5896 5895 5894 5894 5893 5892 5891 5890 5890 5888 5887 5887 5886 5885 5884 5883 5882 5881 5880 5879 5878
5925 5923 5921 5920 5919 5917 5916 5914 5912 5911 5909 5908 5906 5905 5903 5902 5900 5899 5898 5897 5896 5895 5895 5894 5893 5892 5892 5891 5890 5889 5888 5886 5885 5884 5883 5882 5881 5880 5879 5878 5877 5876 5875
5925 5924 5922 5921 5919 5918 5916 5915 5913 5911 5909 5908 5906 5905 5903 5901 5900 5898 5897 5896 5895 5894 5893 5892 5891 5891 5890 5889 5887 5886 5885 5884 5882 5881 5880 5879 5878 5877 5876 5875 5874 5873 5872